616  
SXUS52 KTAE 160518  
OSOTAE  
OSOTAE  
NORTH FLORIDA/SOUTH ALABAMA/SOUTHWEST GEORGIA WEATHER ROUNDUP  
NATIONAL WEATHER SERVICE TALLAHASSEE FLORIDA  
100 AM EDT TUE OCT 16 2018  
 
NOTE: "FAIR" INDICATES FEW OR NO CLOUDS BELOW 12,000 FEET WITH NO  
SIGNIFICANT WEATHER AND/OR OBSTRUCTIONS TO VISIBILITY.  
 
!FLZ017-115-028-034-025-160600   
..NORTH FLORIDA
 
 
 
CITY SKY/WX TMP DP RH WIND PRES REMARKS  
TALLAHASSEE FAIR 73 72 96 CALM 30.11S  
APALACHICOLA NOT AVBL  
PERRY CLOUDY 74 72 93 CALM 30.12S  
CROSS CITY LGT RAIN 78 75 91 CALM 30.12S  
JACKSONVILLE FAIR 73 72 96 SE5 30.12F  

 
 
!FLZ112-006-005-002-011-160600   
..FLORIDA PANHANDLE
 
 
 
CITY SKY/WX TMP DP RH WIND PRES REMARKS  
MARIANNA NOT AVBL  
BONIFAY NOT AVBL  
PANAMA CITY NW NOT AVBL  
TYNDALL AFB FAIR 77 74 92 E1 30.11S  
TYND DRONE APT NOT AVBL  
DE FUNIAK SPR FAIR 74 73 97 CALM 30.12R FOG  
EGLIN AFB PTCLDY 77 75 93 NE3 30.09F  
DESTIN FAIR 81 76 84 CALM 30.09F  
HURLBURT PTCLDY 80 68 67 S5 30.08F  
CRESTVIEW FOG 72 71 97 CALM 30.11F VSB 1/4  
PENSACOLA FAIR 79 76 90 E5 30.08F  

 
 
!ALZ063-066-160600   
..SOUTH ALABAMA
 
 
 
CITY SKY/WX TMP DP RH WIND PRES REMARKS  
DOTHAN MOCLDY 76 71 85 S5 30.15S  
OZARK CAIRNS FAIR 71 70 95 CALM 30.11S  
FT RUCKER HELI FAIR 71 71 99 CALM 30.12R  
RUCKER HELI 3 FAIR 72 71 98 CALM 30.11S  
RUCKER HELI 2 MOCLDY 72 71 94 CALM 30.11S  
FLORALA APT CLOUDY 73 70 90 CALM 30.13S  
ANDALUSIA MOCLDY 77 73 87 N3 30.12S  
TROY LGT RAIN 73 73 100 W3 30.13S FOG  
EUFALA FAIR 76 73 91 SE7 30.10S  
MOBILE MOCLDY 75 74 96 CALM 30.10R  

 
 
!GAZ120>161-160600   
..SOUTHWEST AND SOUTH CENTRAL GEORGIA
 
 
 
CITY SKY/WX TMP DP RH WIND PRES REMARKS  
THOMASVILLE MOCLDY 73 72 94 CALM 30.13S  
BAINBRIDGE NOT AVBL  
MOODY AFB FAIR 74 72 95 W5 30.12S  
VALDOSTA FAIR 73 72 96 CALM 30.12S  
MOULTRIE FAIR 73 70 88 CALM 30.13S  
BLAKELY DRIZZLE 72 70 94 CALM 30.11F  
ALBANY CLOUDY 76 73 91 NW8 30.14R  
TIFTON MOCLDY 76 76 100 S7 30.12S  
FITZGERALD CLOUDY 75 73 91 SE5 30.14F  
CORDELE CLOUDY 73 71 91 CALM 30.13S  
AMERICUS MOCLDY 73 68 83 CALM 30.13F  
HOMERVILLE FAIR 73 73 100 SE3 30.13S  

 
 
!GMZ750-755-770-775-160600   
..COASTAL AND BUOY OBS
 
 
 
STATION/POSITION TIME TEMP WIND PRES VSBY WAVE  
AIR SEA DIR/SP/G HT/PER  
(UTC) (F) (DEG/KT/KT) (MB) (MI) (FT/S)  
KEATON BEACH 0500 76 CALM / 1 1019.9S  
CEDAR KEY 0500 81 120/ 10/ 11 1020.0S  
C TOWER 0500 80 220/ 2/ 2 1019.5F  
APALACHICOLA BUO NOT AVBL  
PANAMA CITY BUOY NOT AVBL  
MOBILE BUOY 0450 83 130/ 12/ 14 1018.2F 2/ 5  
ORANGE BCH AL BU 0500 82 140/ 8/ 10 1018.5  

 
 
 
CLICK HERE TO GO TO PREVIOUS BULLETINS.

The Nexlab FL Page
The Nexlab GA Page
The Nexlab AL Page Main Text Page